Starlink 30704

operational
NORAD ID: 57946 Int'l Des: 2023-148 Owner: SPXS Country: US Constellation: starlink
LEOCIRCULAR

About Starlink 30704

Description loading...

Live Position

Loading 3D Globe...

Upcoming Passes

Altitude History

Altitude vs Time

uPlot chart will show altitude changes over time

Two-Line Element Set

1 57946U 23148M 25304.27379130 .00000949 00000-0 44157-4 0 9992
2 57946 53.1600 342.5727 0001531 113.7853 246.3309 15.30197057117505
Epoch: Oct 31, 2025 • Age: 12 hours

Current Status

Altitude 488.2 km
Velocity 7.62 km/s
Sub-Earth Point -38.50°S, 121.93°W
Launch Date Sep 25, 2023
Age 2 years
Type internet

Technical Details

Classification Payload
Mass 730.00 kg
Dry Mass 700.00 kg
Total Mass 730.00 kg
Length 0.30 m
Diameter 4.10 m
Span 29.00 m
Shape Box + pan
Manufacturer SPXS
Bus Type Starlink V2M
Phase Status In Orbit
Owner/State SPXS/US

Large Constellations

Loading constellations...